Torna al catalogo

YINHE 2-04

AttivoComunicazioniLEO
NORAD 51949·PAYLOAD·🇨🇳 China
Questo nome del satellite non è ancora stato confermato da fonti ufficiali.

Lanciato Mar 5, 2022 da Xichang Satellite Launch Center

Loading…

Prossimi Passaggi (prossime 24 ore)

TLE

AggiornatoSource: Space-Track

Epoca: Sep 14, 2026, 14:04 UTC

1 51949U 22023D   26257.58626343  .00008143  00000-0  32375-3 0  9995
2 51949  63.4478 327.8560 0135005 352.8555   7.0629 15.17954398251284

Traccia YINHE 2-04 in tempo reale con AllMySat

Download on the App Store